| time (UTC) | temp F | wind direction | speed MPH | gust MPH | rain 1hr in | rain 24hr in | rain mn in | humidity % | barometer mb |
| 20260905091501 | 77 | 208 | 2.0 | 4.0 | 0.00 | 0.00 | 0.00 | 72 | 1021.4 |
| 20260905091001 | 77 | 118 | 2.0 | 4.0 | 0.00 | 0.00 | 0.00 | 71 | 1021.5 |
| 20260905090503 | 77 | 220 | 2.0 | 6.0 | 0.00 | 0.00 | 0.00 | 71 | 1021.5 |
| 20260905090002 | 77 | 196 | 2.0 | 6.0 | 0.00 | 0.00 | 0.00 | 71 | 1021.4 |
| 20260905085459 | 77 | 181 | 2.0 | 5.0 | 0.00 | 0.00 | 0.00 | 71 | 1021.3 |
| 20260905085000 | 77 | 221 | 3.0 | 6.0 | 0.00 | 0.00 | 0.00 | 71 | 1021.3 |
| 20260905084736 | 77 | 95 | 2.0 | 6.0 | 0.00 | 0.00 | 0.00 | 71 | 1021.3 |
| 20260905084001 | 77 | 137 | 2.0 | 6.0 | 0.00 | 0.00 | 0.00 | 71 | 1021.2 |
| 20260905083455 | 76 | 215 | 2.0 | 6.0 | 0.00 | 0.00 | 0.00 | 71 | 1021.1 |
| 20260905082955 | 76 | 183 | 3.0 | 6.0 | 0.00 | 0.00 | 0.00 | 70 | 1021.0 |
| 20260905082455 | 76 | 95 | 2.0 | 6.0 | 0.00 | 0.00 | 0.00 | 70 | 1021.0 |
| 20260905081958 | 76 | 108 | 2.0 | 6.0 | 0.00 | 0.00 | 0.00 | 70 | 1020.9 |
| 20260905081458 | 75 | 166 | 2.0 | 6.0 | 0.00 | 0.00 | 0.00 | 70 | 1021.0 |
| 20260905080955 | 75 | 82 | 2.0 | 4.0 | 0.00 | 0.00 | 0.00 | 70 | 1021.1 |
| 20260905080456 | 75 | 114 | 2.0 | 5.0 | 0.00 | 0.00 | 0.00 | 71 | 1021.1 |
| 20260905075957 | 75 | 136 | 2.0 | 5.0 | 0.00 | 0.00 | 0.00 | 71 | 1021.0 |
| 20260905075455 | 75 | 121 | 1.0 | 4.0 | 0.00 | 0.00 | 0.00 | 70 | 1021.1 |
| 20260905074955 | 75 | 156 | 1.0 | 3.0 | 0.00 | 0.00 | 0.00 | 71 | 1021.0 |
| 20260905074455 | 75 | 154 | 1.0 | 3.0 | 0.00 | 0.00 | 0.00 | 71 | 1021.0 |
| 20260905073955 | 75 | 154 | 1.0 | 3.0 | 0.00 | 0.00 | 0.00 | 70 | 1021.0 |
| 20260905073455 | 75 | 193 | 1.0 | 3.0 | 0.00 | 0.00 | 0.00 | 70 | 1020.9 |
| 20260905073001 | 75 | 101 | 1.0 | 3.0 | 0.00 | 0.00 | 0.00 | 70 | 1020.8 |
| 20260905072458 | 75 | 101 | 1.0 | 3.0 | 0.00 | 0.00 | 0.00 | 70 | 1020.8 |
| 20260905071957 | 74 | 100 | 1.0 | 4.0 | 0.00 | 0.00 | 0.00 | 70 | 1020.9 |
| 20260905071456 | 74 | 98 | 1.0 | 4.0 | 0.00 | 0.00 | 0.00 | 70 | 1020.7 |
| 20260905070954 | 74 | 94 | 1.0 | 3.0 | 0.00 | 0.00 | 0.00 | 70 | 1020.7 |
| 20260905070453 | 74 | 89 | 1.0 | 3.0 | 0.00 | 0.00 | 0.00 | 70 | 1020.8 |
| 20260905065953 | 73 | 89 | 1.0 | 3.0 | 0.00 | 0.00 | 0.00 | 70 | 1020.8 |
| 20260905065453 | 73 | 89 | 1.0 | 3.0 | 0.00 | 0.00 | 0.00 | 70 | 1020.8 |
| 20260905064949 | 73 | 89 | 0.0 | 2.0 | 0.00 | 0.00 | 0.00 | 70 | 1020.9 |
| 20260905064449 | 73 | 89 | 0.0 | 2.0 | 0.00 | 0.00 | 0.00 | 70 | 1020.9 |
| 20260905063949 | 73 | 89 | 0.0 | 1.0 | 0.00 | 0.00 | 0.00 | 70 | 1020.8 |
| 20260905063725 | 73 | 89 | 0.0 | 2.0 | 0.00 | 0.00 | 0.00 | 70 | 1020.8 |
| 20260905062946 | 73 | 89 | 1.0 | 3.0 | 0.00 | 0.00 | 0.00 | 70 | 1020.7 |
| 20260905062450 | 73 | 89 | 1.0 | 3.0 | 0.00 | 0.00 | 0.00 | 70 | 1020.7 |
| 20260905061944 | 73 | 88 | 1.0 | 3.0 | 0.00 | 0.00 | 0.00 | 70 | 1020.8 |
| 20260905061445 | 73 | 88 | 1.0 | 3.0 | 0.00 | 0.00 | 0.00 | 70 | 1020.7 |
| 20260905060945 | 73 | 87 | 1.0 | 3.0 | 0.00 | 0.00 | 0.00 | 70 | 1020.6 |
| 20260905060445 | 72 | 87 | 1.0 | 3.0 | 0.00 | 0.00 | 0.00 | 71 | 1020.6 |
| 20260905055944 | 72 | 87 | 0.0 | 3.0 | 0.00 | 0.00 | 0.00 | 72 | 1020.7 |
| 20260905055721 | 72 | 354 | 0.0 | 2.0 | 0.00 | 0.00 | 0.00 | 73 | 1020.6 |
| 20260905055222 | 71 | 354 | 0.0 | 2.0 | 0.00 | 0.00 | 0.00 | 73 | 1020.7 |
| 20260905054744 | 71 | 354 | 0.0 | 1.0 | 0.00 | 0.00 | 0.00 | 73 | 1020.5 |
| 20260905053939 | 71 | 354 | 0.0 | 1.0 | 0.00 | 0.00 | 0.00 | 73 | 1020.6 |
| 20260905053444 | 71 | 354 | 0.0 | 2.0 | 0.00 | 0.00 | 0.00 | 73 | 1020.4 |
| 20260905052943 | 71 | 354 | 1.0 | 2.0 | 0.00 | 0.00 | 0.00 | 73 | 1020.3 |
| 20260905052435 | 71 | 354 | 1.0 | 2.0 | 0.00 | 0.00 | 0.00 | 73 | 1020.3 |
| 20260905051935 | 71 | 354 | 1.0 | 2.0 | 0.00 | 0.00 | 0.00 | 73 | 1020.3 |
| 20260905051436 | 70 | 354 | 1.0 | 2.0 | 0.00 | 0.00 | 0.00 | 73 | 1020.3 |
| 20260905050935 | 70 | 354 | 1.0 | 2.0 | 0.00 | 0.00 | 0.00 | 74 | 1020.3 |
| 20260905050442 | 70 | 354 | 1.0 | 2.0 | 0.00 | 0.00 | 0.00 | 73 | 1020.3 |
| 20260905045935 | 70 | 354 | 1.0 | 2.0 | 0.00 | 0.00 | 0.00 | 73 | 1020.2 |
| 20260905045725 | 70 | 354 | 1.0 | 2.0 | 0.00 | 0.00 | 0.00 | 73 | 1020.1 |
| 20260905045221 | 70 | 354 | 1.0 | 3.0 | 0.00 | 0.00 | 0.00 | 73 | 1020.1 |
| 20260905044713 | 70 | 354 | 1.0 | 3.0 | 0.00 | 0.00 | 0.00 | 73 | 1020.2 |
| 20260905044218 | 70 | 354 | 1.0 | 2.0 | 0.00 | 0.00 | 0.00 | 73 | 1020.0 |
| 20260905043438 | 70 | 354 | 1.0 | 2.0 | 0.00 | 0.00 | 0.00 | 73 | 1020.0 |
| 20260905042931 | 70 | 354 | 1.0 | 2.0 | 0.00 | 0.00 | 0.00 | 72 | 1020.1 |
| 20260905042432 | 70 | 354 | 2.0 | 3.0 | 0.00 | 0.00 | 0.00 | 72 | 1020.1 |
| 20260905042228 | 69 | 354 | 2.0 | 3.0 | 0.00 | 0.00 | 0.00 | 71 | 1020.0 |
| 20260905041431 | 69 | 354 | 1.0 | 2.0 | 0.00 | 0.00 | 0.00 | 71 | 1020.0 |
| 20260905040929 | 69 | 354 | 1.0 | 2.0 | 0.00 | 0.00 | 0.00 | 71 | 1020.0 |
| 20260905040428 | 69 | 354 | 1.0 | 2.0 | 0.00 | 0.00 | 0.00 | 70 | 1020.0 |
| 20260905035930 | 69 | 354 | 1.0 | 3.0 | 0.00 | 0.00 | 0.00 | 70 | 1020.1 |
| 20260905035428 | 69 | 354 | 1.0 | 3.0 | 0.00 | 0.00 | 0.00 | 70 | 1020.2 |
| 20260905034922 | 69 | 328 | 1.0 | 2.0 | 0.00 | 0.00 | 0.00 | 71 | 1020.2 |
| 20260905034417 | 69 | 328 | 2.0 | 3.0 | 0.00 | 0.00 | 0.00 | 71 | 1020.1 |
| 20260905033914 | 69 | 328 | 1.0 | 3.0 | 0.00 | 0.00 | 0.00 | 72 | 1020.2 |
| 20260905033413 | 69 | 328 | 1.0 | 3.0 | 0.00 | 0.00 | 0.00 | 72 | 1020.2 |
| 20260905032910 | 70 | 328 | 1.0 | 2.0 | 0.00 | 0.00 | 0.00 | 73 | 1020.3 |
| 20260905032409 | 70 | 328 | 1.0 | 2.0 | 0.00 | 0.00 | 0.00 | 74 | 1020.3 |
| 20260905031909 | 70 | 328 | 1.0 | 2.0 | 0.00 | 0.00 | 0.00 | 74 | 1020.3 |
| 20260905031408 | 70 | 329 | 1.0 | 2.0 | 0.00 | 0.00 | 0.00 | 74 | 1020.3 |
| 20260905030911 | 70 | 329 | 1.0 | 2.0 | 0.00 | 0.00 | 0.00 | 74 | 1020.3 |
| 20260905030406 | 70 | 328 | 1.0 | 3.0 | 0.00 | 0.00 | 0.00 | 74 | 1020.4 |
| 20260905025906 | 70 | 312 | 1.0 | 3.0 | 0.00 | 0.00 | 0.00 | 74 | 1020.3 |
| 20260905025405 | 70 | 292 | 1.0 | 2.0 | 0.00 | 0.00 | 0.00 | 74 | 1020.3 |
| 20260905024906 | 70 | 292 | 1.0 | 2.0 | 0.00 | 0.00 | 0.00 | 74 | 1020.3 |
| 20260905024404 | 70 | 292 | 1.0 | 2.0 | 0.00 | 0.00 | 0.00 | 74 | 1020.4 |
| 20260905023904 | 70 | 292 | 1.0 | 2.0 | 0.00 | 0.00 | 0.00 | 75 | 1020.5 |
| 20260905023404 | 70 | 292 | 1.0 | 2.0 | 0.00 | 0.00 | 0.00 | 75 | 1020.4 |
| 20260905022858 | 70 | 292 | 1.0 | 2.0 | 0.00 | 0.00 | 0.00 | 75 | 1020.5 |
| 20260905022353 | 71 | 292 | 1.0 | 2.0 | 0.00 | 0.00 | 0.00 | 75 | 1020.6 |
| 20260905021846 | 71 | 292 | 1.0 | 2.0 | 0.00 | 0.00 | 0.00 | 75 | 1020.6 |
| 20260905021352 | 71 | 292 | 1.0 | 2.0 | 0.00 | 0.00 | 0.00 | 76 | 1020.5 |
| 20260905021128 | 71 | 292 | 1.0 | 2.0 | 0.00 | 0.00 | 0.00 | 77 | 1020.6 |
| 20260905020345 | 71 | 292 | 0.0 | 2.0 | 0.00 | 0.00 | 0.00 | 78 | 1020.6 |
| 20260905015844 | 71 | 292 | 1.0 | 2.0 | 0.00 | 0.00 | 0.00 | 78 | 1020.6 |
| 20260905015338 | 71 | 292 | 1.0 | 2.0 | 0.00 | 0.00 | 0.00 | 78 | 1020.7 |
| 20260905014836 | 71 | 292 | 0.0 | 2.0 | 0.00 | 0.00 | 0.00 | 77 | 1020.6 |
| 20260905014337 | 71 | 292 | 0.0 | 1.0 | 0.00 | 0.00 | 0.00 | 78 | 1020.6 |
| 20260905013837 | 71 | 292 | 0.0 | 1.0 | 0.00 | 0.00 | 0.00 | 77 | 1020.8 |
| 20260905013335 | 71 | 292 | 1.0 | 4.0 | 0.00 | 0.00 | 0.00 | 76 | 1020.7 |
| 20260905013120 | 72 | 292 | 2.0 | 4.0 | 0.00 | 0.00 | 0.00 | 76 | 1020.6 |
| 20260905012333 | 72 | 336 | 2.0 | 4.0 | 0.00 | 0.00 | 0.00 | 76 | 1020.6 |
| 20260905011833 | 72 | 307 | 1.0 | 3.0 | 0.00 | 0.00 | 0.00 | 76 | 1020.5 |
| 20260905011332 | 72 | 307 | 2.0 | 4.0 | 0.00 | 0.00 | 0.00 | 76 | 1020.6 |
| 20260905010835 | 72 | 307 | 2.0 | 4.0 | 0.00 | 0.00 | 0.00 | 75 | 1020.6 |
| 20260905010334 | 72 | 289 | 2.0 | 4.0 | 0.00 | 0.00 | 0.00 | 73 | 1020.5 |
| 20260905005832 | 72 | 291 | 2.0 | 4.0 | 0.00 | 0.00 | 0.00 | 72 | 1020.5 |
| 20260905005332 | 72 | 299 | 2.0 | 4.0 | 0.00 | 0.00 | 0.00 | 72 | 1020.5 |
| 20260905004834 | 72 | 283 | 2.0 | 4.0 | 0.00 | 0.00 | 0.00 | 72 | 1020.6 |
| 20260905004334 | 72 | 349 | 2.0 | 3.0 | 0.00 | 0.00 | 0.00 | 72 | 1020.6 |
| 20260905003832 | 72 | 349 | 2.0 | 3.0 | 0.00 | 0.00 | 0.00 | 73 | 1020.7 |
| 20260905003333 | 72 | 349 | 2.0 | 3.0 | 0.00 | 0.00 | 0.00 | 72 | 1020.7 |
| 20260905002833 | 72 | 349 | 2.0 | 3.0 | 0.00 | 0.00 | 0.00 | 70 | 1020.6 |
| 20260905002337 | 72 | 349 | 2.0 | 2.0 | 0.00 | 0.00 | 0.00 | 68 | 1020.7 |
| 20260905001838 | 72 | 349 | 2.0 | 2.0 | 0.00 | 0.00 | 0.00 | 65 | 1020.7 |
| 20260905001333 | 72 | 349 | 2.0 | 3.0 | 0.00 | 0.00 | 0.00 | 63 | 1020.7 |
| 20260905000836 | 72 | 349 | 2.0 | 3.0 | 0.00 | 0.00 | 0.00 | 62 | 1020.8 |
| 20260905000621 | 73 | 349 | 2.0 | 3.0 | 0.00 | 0.00 | 0.00 | 63 | 1020.8 |
| 20260905000149 | 73 | 349 | 2.0 | 3.0 | 0.00 | 0.00 | 0.00 | 62 | 1020.9 |
| 20260904235334 | 73 | 349 | 2.0 | 3.0 | 0.00 | 0.00 | 0.00 | 61 | 1020.9 |
| 20260904234835 | 73 | 349 | 2.0 | 3.0 | 0.00 | 0.00 | 0.00 | 60 | 1021.0 |
| 20260904234624 | 73 | 349 | 2.0 | 3.0 | 0.00 | 0.00 | 0.00 | 60 | 1021.0 |
| 20260904233834 | 73 | 349 | 2.0 | 3.0 | 0.00 | 0.00 | 0.00 | 60 | 1021.1 |
| 20260904233334 | 73 | 349 | 2.0 | 3.0 | 0.00 | 0.00 | 0.00 | 58 | 1021.0 |
| 20260904232833 | 73 | 349 | 2.0 | 3.0 | 0.00 | 0.00 | 0.00 | 55 | 1020.9 |
| 20260904232334 | 73 | 349 | 2.0 | 3.0 | 0.00 | 0.00 | 0.00 | 54 | 1021.0 |
| 20260904231833 | 73 | 349 | 2.0 | 3.0 | 0.00 | 0.00 | 0.00 | 54 | 1021.0 |
| 20260904231332 | 73 | 349 | 2.0 | 3.0 | 0.00 | 0.00 | 0.00 | 56 | 1021.0 |
| 20260904230834 | 73 | 349 | 2.0 | 3.0 | 0.00 | 0.00 | 0.00 | 54 | 1021.0 |
| 20260904230333 | 73 | 349 | 2.0 | 3.0 | 0.00 | 0.00 | 0.00 | 52 | 1021.1 |
| 20260904225833 | 73 | 349 | 2.0 | 3.0 | 0.00 | 0.00 | 0.00 | 52 | 1021.2 |
| 20260904225612 | 73 | 349 | 2.0 | 3.0 | 0.00 | 0.00 | 0.00 | 51 | 1021.2 |
| 20260904224837 | 73 | 349 | 2.0 | 3.0 | 0.00 | 0.00 | 0.00 | 53 | 1021.2 |
| 20260904224335 | 73 | 337 | 2.0 | 3.0 | 0.00 | 0.00 | 0.00 | 59 | 1021.2 |
| 20260904223833 | 73 | 336 | 2.0 | 4.0 | 0.00 | 0.00 | 0.00 | 60 | 1021.2 |
| 20260904223334 | 73 | 336 | 2.0 | 4.0 | 0.00 | 0.00 | 0.00 | 61 | 1021.1 |
| 20260904222835 | 73 | 342 | 2.0 | 3.0 | 0.00 | 0.00 | 0.00 | 61 | 1021.1 |
| 20260904222334 | 73 | 343 | 2.0 | 3.0 | 0.00 | 0.00 | 0.00 | 60 | 1021.0 |
| 20260904221837 | 73 | 337 | 2.0 | 3.0 | 0.00 | 0.00 | 0.00 | 58 | 1021.0 |
| 20260904221338 | 73 | 332 | 2.0 | 4.0 | 0.00 | 0.00 | 0.00 | 57 | 1021.1 |
| 20260904221136 | 73 | 328 | 2.0 | 4.0 | 0.00 | 0.00 | 0.00 | 59 | 1021.2 |
| 20260904220332 | 73 | 345 | 2.0 | 3.0 | 0.00 | 0.00 | 0.00 | 60 | 1021.3 |
| 20260904215832 | 73 | 345 | 2.0 | 3.0 | 0.00 | 0.00 | 0.00 | 61 | 1021.3 |
| 20260904215334 | 73 | 345 | 2.0 | 3.0 | 0.00 | 0.00 | 0.00 | 61 | 1021.4 |
| 20260904215108 | 73 | 345 | 2.0 | 3.0 | 0.00 | 0.00 | 0.00 | 59 | 1021.3 |
| 20260904214332 | 73 | 345 | 2.0 | 3.0 | 0.00 | 0.00 | 0.00 | 61 | 1021.3 |
| 20260904213833 | 73 | 340 | 2.0 | 3.0 | 0.00 | 0.00 | 0.00 | 61 | 1021.3 |
| 20260904213333 | 73 | 339 | 2.0 | 3.0 | 0.00 | 0.00 | 0.00 | 61 | 1021.4 |
| 20260904212833 | 74 | 339 | 2.0 | 3.0 | 0.00 | 0.00 | 0.00 | 61 | 1021.4 |
| 20260904212332 | 74 | 354 | 2.0 | 3.0 | 0.00 | 0.00 | 0.00 | 62 | 1021.3 |
| 20260904211831 | 74 | 354 | 2.0 | 3.0 | 0.00 | 0.00 | 0.00 | 63 | 1021.3 |
| 20260904211333 | 74 | 354 | 2.0 | 3.0 | 0.00 | 0.00 | 0.00 | 63 | 1021.3 |
| 20260904210833 | 74 | 354 | 2.0 | 3.0 | 0.00 | 0.00 | 0.00 | 62 | 1021.3 |
| 20260904210332 | 74 | 354 | 2.0 | 3.0 | 0.00 | 0.00 | 0.00 | 61 | 1021.4 |
| 20260904205832 | 74 | 354 | 2.0 | 3.0 | 0.00 | 0.00 | 0.00 | 59 | 1021.4 |
| 20260904205333 | 74 | 354 | 2.0 | 3.0 | 0.00 | 0.00 | 0.00 | 57 | 1021.4 |
| 20260904205117 | 74 | 354 | 2.0 | 3.0 | 0.00 | 0.00 | 0.00 | 56 | 1021.4 |
| 20260904204334 | 74 | 354 | 2.0 | 3.0 | 0.00 | 0.00 | 0.00 | 57 | 1021.5 |
| 20260904203825 | 74 | 354 | 2.0 | 3.0 | 0.00 | 0.00 | 0.00 | 54 | 1021.5 |
| 20260904203317 | 74 | 354 | 2.0 | 3.0 | 0.00 | 0.00 | 0.00 | 54 | 1021.5 |
| 20260904202811 | 74 | 354 | 2.0 | 3.0 | 0.00 | 0.00 | 0.00 | 54 | 1021.5 |
| 20260904202306 | 74 | 354 | 2.0 | 3.0 | 0.00 | 0.00 | 0.00 | 54 | 1021.5 |
| 20260904201809 | 74 | 354 | 2.0 | 3.0 | 0.00 | 0.00 | 0.00 | 54 | 1021.6 |
| 20260904201306 | 74 | 345 | 2.0 | 3.0 | 0.00 | 0.00 | 0.00 | 54 | 1021.6 |
| 20260904200806 | 74 | 345 | 2.0 | 3.0 | 0.00 | 0.00 | 0.00 | 53 | 1021.5 |
| 20260904200306 | 74 | 344 | 2.0 | 3.0 | 0.00 | 0.00 | 0.00 | 54 | 1021.5 |
| 20260904195807 | 74 | 344 | 2.0 | 3.0 | 0.00 | 0.00 | 0.00 | 55 | 1021.5 |
| 20260904195306 | 74 | 343 | 2.0 | 3.0 | 0.00 | 0.00 | 0.00 | 55 | 1021.5 |
| 20260904194807 | 74 | 344 | 2.0 | 3.0 | 0.00 | 0.00 | 0.00 | 54 | 1021.5 |
| 20260904194308 | 75 | 344 | 2.0 | 3.0 | 0.00 | 0.00 | 0.00 | 52 | 1021.4 |
| 20260904193806 | 75 | 344 | 2.0 | 3.0 | 0.00 | 0.00 | 0.00 | 53 | 1021.4 |
| 20260904193307 | 75 | 341 | 2.0 | 3.0 | 0.00 | 0.00 | 0.00 | 54 | 1021.4 |
| 20260904193045 | 75 | 341 | 2.0 | 3.0 | 0.00 | 0.00 | 0.00 | 52 | 1021.4 |
| 20260904192306 | 75 | 341 | 2.0 | 3.0 | 0.00 | 0.00 | 0.00 | 54 | 1021.4 |
| 20260904191838 | 75 | 341 | 2.0 | 3.0 | 0.00 | 0.00 | 0.00 | 51 | 1021.4 |
| 20260904191825 | 75 | 341 | 2.0 | 3.0 | 0.00 | 0.00 | 0.00 | 54 | 1021.4 |
| 20260904190817 | 75 | 341 | 2.0 | 3.0 | 0.00 | 0.00 | 0.00 | 51 | 1021.4 |
| 20260904190305 | 75 | 341 | 2.0 | 3.0 | 0.00 | 0.00 | 0.00 | 50 | 1021.4 |
| 20260904185805 | 75 | 341 | 2.0 | 3.0 | 0.00 | 0.00 | 0.00 | 48 | 1021.3 |
| 20260904185306 | 75 | 341 | 2.0 | 3.0 | 0.00 | 0.00 | 0.00 | 48 | 1021.3 |
| 20260904184806 | 75 | 341 | 3.0 | 3.0 | 0.00 | 0.00 | 0.00 | 48 | 1021.2 |
| 20260904184305 | 75 | 341 | 2.0 | 3.0 | 0.00 | 0.00 | 0.00 | 48 | 1021.2 |
| 20260904183805 | 75 | 343 | 2.0 | 4.0 | 0.00 | 0.00 | 0.00 | 50 | 1021.2 |
| 20260904183552 | 75 | 343 | 2.0 | 4.0 | 0.00 | 0.00 | 0.00 | 49 | 1021.1 |
| 20260904182805 | 75 | 343 | 2.0 | 3.0 | 0.00 | 0.00 | 0.00 | 49 | 1021.1 |
| 20260904182306 | 75 | 343 | 2.0 | 3.0 | 0.00 | 0.00 | 0.00 | 48 | 1021.0 |
| 20260904181806 | 75 | 343 | 2.0 | 3.0 | 0.00 | 0.00 | 0.00 | 48 | 1021.1 |
| 20260904181547 | 75 | 344 | 3.0 | 3.0 | 0.00 | 0.00 | 0.00 | 47 | 1021.1 |
| 20260904180805 | 75 | 344 | 3.0 | 4.0 | 0.00 | 0.00 | 0.00 | 47 | 1021.0 |
| 20260904180306 | 75 | 347 | 2.0 | 4.0 | 0.00 | 0.00 | 0.00 | 49 | 1021.0 |
| 20260904175806 | 76 | 347 | 2.0 | 3.0 | 0.00 | 0.00 | 0.00 | 52 | 1020.9 |
| 20260904175306 | 76 | 348 | 2.0 | 3.0 | 0.00 | 0.00 | 0.00 | 53 | 1021.0 |
| 20260904174807 | 76 | 342 | 2.0 | 3.0 | 0.00 | 0.00 | 0.00 | 54 | 1020.9 |
| 20260904174307 | 76 | 339 | 2.0 | 3.0 | 0.00 | 0.00 | 0.00 | 55 | 1020.9 |
| 20260904173806 | 76 | 339 | 2.0 | 3.0 | 0.00 | 0.00 | 0.00 | 55 | 1020.9 |
| 20260904173306 | 76 | 347 | 2.0 | 3.0 | 0.00 | 0.00 | 0.00 | 54 | 1020.9 |
| 20260904172808 | 76 | 347 | 2.0 | 3.0 | 0.00 | 0.00 | 0.00 | 54 | 1021.0 |
| 20260904172306 | 76 | 347 | 2.0 | 3.0 | 0.00 | 0.00 | 0.00 | 54 | 1020.9 |
| 20260904171808 | 76 | 341 | 2.0 | 3.0 | 0.00 | 0.00 | 0.00 | 54 | 1021.0 |
| 20260904171308 | 76 | 341 | 2.0 | 3.0 | 0.00 | 0.00 | 0.00 | 56 | 1021.0 |
| 20260904170807 | 76 | 341 | 2.0 | 3.0 | 0.00 | 0.00 | 0.00 | 58 | 1021.1 |
| 20260904170306 | 76 | 341 | 2.0 | 3.0 | 0.00 | 0.00 | 0.00 | 59 | 1021.1 |
| 20260904165800 | 76 | 342 | 2.0 | 3.0 | 0.00 | 0.00 | 0.00 | 61 | 1021.2 |
| 20260904165251 | 77 | 342 | 2.0 | 3.0 | 0.00 | 0.00 | 0.00 | 61 | 1021.1 |
| 20260904164741 | 77 | 337 | 2.0 | 3.0 | 0.00 | 0.00 | 0.00 | 59 | 1021.2 |
| 20260904164235 | 77 | 334 | 2.0 | 3.0 | 0.00 | 0.00 | 0.00 | 60 | 1021.2 |
| 20260904164024 | 77 | 350 | 2.0 | 3.0 | 0.00 | 0.00 | 0.00 | 63 | 1021.2 |
| 20260904163232 | 77 | 350 | 2.0 | 3.0 | 0.00 | 0.00 | 0.00 | 63 | 1021.3 |
| 20260904162733 | 77 | 4 | 2.0 | 3.0 | 0.00 | 0.00 | 0.00 | 62 | 1021.3 |
| 20260904162232 | 77 | 4 | 2.0 | 3.0 | 0.00 | 0.00 | 0.00 | 65 | 1021.4 |
| 20260904161732 | 77 | 4 | 2.0 | 3.0 | 0.00 | 0.00 | 0.00 | 66 | 1021.3 |
| 20260904161233 | 77 | 4 | 2.0 | 3.0 | 0.00 | 0.00 | 0.00 | 66 | 1021.4 |
| 20260904160732 | 77 | 4 | 2.0 | 3.0 | 0.00 | 0.00 | 0.00 | 65 | 1021.3 |
| 20260904160325 | 77 | 4 | 2.0 | 3.0 | 0.00 | 0.00 | 0.00 | 62 | 1021.4 |
| 20260904160304 | 77 | 4 | 2.0 | 3.0 | 0.00 | 0.00 | 0.00 | 64 | 1021.4 |
| 20260904155232 | 77 | 16 | 2.0 | 3.0 | 0.00 | 0.00 | 0.00 | 60 | 1021.4 |
| 20260904154734 | 77 | 16 | 2.0 | 3.0 | 0.00 | 0.00 | 0.00 | 60 | 1021.4 |
| 20260904154234 | 77 | 16 | 2.0 | 3.0 | 0.00 | 0.00 | 0.00 | 63 | 1021.4 |
| 20260904154047 | 77 | 16 | 2.0 | 2.0 | 0.00 | 0.00 | 0.00 | 65 | 1021.4 |
| 20260904153533 | 77 | 16 | 1.0 | 2.0 | 0.00 | 0.00 | 0.00 | 65 | 1021.5 |
| 20260904152726 | 78 | 16 | 1.0 | 2.0 | 0.00 | 0.00 | 0.00 | 64 | 1021.4 |
| 20260904152225 | 78 | 16 | 1.0 | 3.0 | 0.00 | 0.00 | 0.00 | 64 | 1021.5 |
| 20260904151726 | 78 | 16 | 1.0 | 3.0 | 0.00 | 0.00 | 0.00 | 63 | 1021.6 |
| 20260904151224 | 78 | 16 | 2.0 | 3.0 | 0.00 | 0.00 | 0.00 | 62 | 1021.6 |
| 20260904150723 | 78 | 16 | 2.0 | 3.0 | 0.00 | 0.00 | 0.00 | 60 | 1021.7 |
| 20260904150501 | 79 | 16 | 2.0 | 3.0 | 0.00 | 0.00 | 0.00 | 59 | 1021.7 |
| 20260904145724 | 79 | 16 | 2.0 | 3.0 | 0.00 | 0.00 | 0.00 | 58 | 1021.7 |
| 20260904145221 | 80 | 17 | 1.0 | 3.0 | 0.00 | 0.00 | 0.00 | 59 | 1021.8 |
| 20260904144721 | 80 | 68 | 1.0 | 3.0 | 0.00 | 0.00 | 0.00 | 61 | 1021.8 |
| 20260904144220 | 81 | 68 | 1.0 | 3.0 | 0.00 | 0.00 | 0.00 | 62 | 1022.0 |
| 20260904143959 | 82 | 116 | 1.0 | 3.0 | 0.00 | 0.00 | 0.00 | 61 | 1022.0 |
| 20260904143217 | 82 | 116 | 1.0 | 4.0 | 0.00 | 0.00 | 0.00 | 60 | 1022.0 |
| 20260904142717 | 82 | 116 | 1.0 | 4.0 | 0.00 | 0.00 | 0.00 | 58 | 1022.0 |
| 20260904142216 | 83 | 117 | 1.0 | 3.0 | 0.00 | 0.00 | 0.00 | 60 | 1022.1 |
| 20260904141957 | 83 | 118 | 1.0 | 3.0 | 0.00 | 0.00 | 0.00 | 61 | 1022.0 |
| 20260904141247 | 83 | 154 | 1.0 | 5.0 | 0.00 | 0.00 | 0.00 | 62 | 1022.1 |
| 20260904141234 | 83 | 118 | 1.0 | 3.0 | 0.00 | 0.00 | 0.00 | 62 | 1022.0 |
| 20260904140213 | 82 | 154 | 2.0 | 5.0 | 0.00 | 0.00 | 0.00 | 61 | 1022.1 |
| 20260904135711 | 82 | 199 | 2.0 | 8.0 | 0.00 | 0.00 | 0.00 | 58 | 1022.0 |
| 20260904135209 | 82 | 91 | 3.0 | 8.0 | 0.00 | 0.00 | 0.00 | 55 | 1022.0 |
| 20260904134745 | 81 | 147 | 2.0 | 6.0 | 0.00 | 0.00 | 0.00 | 62 | 1022.1 |
| 20260904134733 | 82 | 148 | 2.0 | 6.0 | 0.00 | 0.00 | 0.00 | 59 | 1022.1 |
| 20260904133710 | 82 | 153 | 2.0 | 5.0 | 0.00 | 0.00 | 0.00 | 67 | 1022.0 |
| 20260904133211 | 82 | 187 | 2.0 | 6.0 | 0.00 | 0.00 | 0.00 | 68 | 1022.0 |
| 20260904132714 | 82 | 154 | 3.0 | 7.0 | 0.00 | 0.00 | 0.00 | 68 | 1022.0 |
| 20260904132210 | 82 | 119 | 2.0 | 7.0 | 0.00 | 0.00 | 0.00 | 67 | 1022.0 |
| 20260904131715 | 82 | 99 | 3.0 | 5.0 | 0.00 | 0.00 | 0.00 | 68 | 1022.0 |
| 20260904131210 | 82 | 199 | 3.0 | 7.0 | 0.00 | 0.00 | 0.00 | 67 | 1022.0 |
| 20260904130712 | 82 | 70 | 2.0 | 7.0 | 0.00 | 0.00 | 0.00 | 67 | 1022.1 |
| 20260904130210 | 82 | 83 | 2.0 | 6.0 | 0.00 | 0.00 | 0.00 | 66 | 1022.1 |
| 20260904125707 | 82 | 126 | 2.0 | 6.0 | 0.00 | 0.00 | 0.00 | 68 | 1022.2 |
| 20260904125210 | 82 | 106 | 2.0 | 6.0 | 0.00 | 0.00 | 0.00 | 67 | 1022.1 |
| 20260904124707 | 82 | 92 | 3.0 | 8.0 | 0.00 | 0.00 | 0.00 | 67 | 1022.2 |
| 20260904124205 | 82 | 102 | 3.0 | 8.0 | 0.00 | 0.00 | 0.00 | 67 | 1022.3 |
| 20260904123709 | 82 | 145 | 2.0 | 6.0 | 0.00 | 0.00 | 0.00 | 66 | 1022.3 |
| 20260904123207 | 82 | 114 | 2.0 | 6.0 | 0.00 | 0.00 | 0.00 | 65 | 1022.3 |
| 20260904122706 | 83 | 136 | 2.0 | 7.0 | 0.00 | 0.00 | 0.00 | 64 | 1022.3 |
| 20260904122447 | 83 | 155 | 3.0 | 7.0 | 0.00 | 0.00 | 0.00 | 64 | 1022.4 |
| 20260904121710 | 83 | 173 | 2.0 | 6.0 | 0.00 | 0.00 | 0.00 | 63 | 1022.4 |
| 20260904121444 | 84 | 201 | 3.0 | 7.0 | 0.00 | 0.00 | 0.00 | 63 | 1022.4 |
| 20260904120703 | 83 | 181 | 2.0 | 7.0 | 0.00 | 0.00 | 0.00 | 63 | 1022.3 |
| 20260904120204 | 83 | 99 | 2.0 | 5.0 | 0.00 | 0.00 | 0.00 | 57 | 1022.3 |
| 20260904115704 | 83 | 200 | 2.0 | 5.0 | 0.00 | 0.00 | 0.00 | 62 | 1022.3 |
| 20260904115205 | 83 | 114 | 2.0 | 5.0 | 0.00 | 0.00 | 0.00 | 65 | 1022.3 |
| 20260904114704 | 83 | 148 | 2.0 | 5.0 | 0.00 | 0.00 | 0.00 | 64 | 1022.3 |
| 20260904114453 | 83 | 189 | 2.0 | 6.0 | 0.00 | 0.00 | 0.00 | 64 | 1022.4 |
| 20260904113941 | 84 | 166 | 3.0 | 7.0 | 0.00 | 0.00 | 0.00 | 63 | 1022.3 |
| 20260904113205 | 84 | 181 | 2.0 | 7.0 | 0.00 | 0.00 | 0.00 | 63 | 1022.3 |
| 20260904112707 | 84 | 112 | 2.0 | 7.0 | 0.00 | 0.00 | 0.00 | 61 | 1022.3 |
| 20260904112204 | 84 | 216 | 3.0 | 7.0 | 0.00 | 0.00 | 0.00 | 63 | 1022.3 |
| 20260904111705 | 84 | 197 | 3.0 | 7.0 | 0.00 | 0.00 | 0.00 | 63 | 1022.3 |
| 20260904111203 | 83 | 147 | 3.0 | 7.0 | 0.00 | 0.00 | 0.00 | 62 | 1022.4 |
| 20260904110706 | 83 | 118 | 3.0 | 7.0 | 0.00 | 0.00 | 0.00 | 62 | 1022.4 |
| 20260904110203 | 83 | 143 | 3.0 | 7.0 | 0.00 | 0.00 | 0.00 | 62 | 1022.4 |
| 20260904105706 | 83 | 127 | 3.0 | 7.0 | 0.00 | 0.00 | 0.00 | 62 | 1022.4 |
| 20260904105203 | 83 | 116 | 2.0 | 6.0 | 0.00 | 0.00 | 0.00 | 62 | 1022.3 |
| 20260904104703 | 83 | 162 | 3.0 | 6.0 | 0.00 | 0.00 | 0.00 | 62 | 1022.3 |
| 20260904104456 | 83 | 130 | 2.0 | 6.0 | 0.00 | 0.00 | 0.00 | 62 | 1022.4 |
| 20260904103705 | 83 | 184 | 2.0 | 7.0 | 0.00 | 0.00 | 0.00 | 63 | 1022.4 |
| 20260904103204 | 83 | 129 | 3.0 | 7.0 | 0.00 | 0.00 | 0.00 | 63 | 1022.4 |
| 20260904102704 | 83 | 152 | 3.0 | 6.0 | 0.00 | 0.00 | 0.00 | 63 | 1022.4 |
| 20260904102206 | 83 | 226 | 2.0 | 7.0 | 0.00 | 0.00 | 0.00 | 61 | 1022.5 |
| 20260904101952 | 83 | 121 | 2.0 | 7.0 | 0.00 | 0.00 | 0.00 | 62 | 1022.5 |
| 20260904101203 | 83 | 187 | 2.0 | 5.0 | 0.00 | 0.00 | 0.00 | 60 | 1022.5 |
| 20260904100704 | 83 | 151 | 2.0 | 5.0 | 0.00 | 0.00 | 0.00 | 62 | 1022.6 |
| 20260904100204 | 83 | 178 | 2.0 | 7.0 | 0.00 | 0.00 | 0.00 | 61 | 1022.6 |
| 20260904095703 | 83 | 74 | 2.0 | 7.0 | 0.00 | 0.00 | 0.00 | 61 | 1022.6 |
| 20260904095445 | 83 | 152 | 3.0 | 7.0 | 0.00 | 0.00 | 0.00 | 61 | 1022.7 |
| 20260904094702 | 83 | 110 | 3.0 | 7.0 | 0.00 | 0.00 | 0.00 | 60 | 1022.6 |
| 20260904094200 | 83 | 91 | 2.0 | 6.0 | 0.00 | 0.00 | 0.00 | 61 | 1022.6 |
| 20260904093659 | 83 | 167 | 2.0 | 4.0 | 0.00 | 0.00 | 0.00 | 59 | 1022.6 |
| 20260904093159 | 82 | 125 | 2.0 | 4.0 | 0.00 | 0.00 | 0.00 | 58 | 1022.6 |
| 20260904092659 | 82 | 111 | 2.0 | 4.0 | 0.00 | 0.00 | 0.00 | 60 | 1022.6 |
| 20260904092200 | 82 | 151 | 2.0 | 6.0 | 0.00 | 0.00 | 0.00 | 59 | 1022.6 |
| 20260904091701 | 82 | 129 | 2.0 | 6.0 | 0.00 | 0.00 | 0.00 | 59 | 1022.7 |